Location: Leuk
(46.3174°N, 7.6341°E)
Time: 12:50:51
(UTC+00:00)

METEOR-M - Pass Details

Date: 09 March 2021
Orbit: 815 x 820 km, 98.5° (Epoch: 20 April)

Event Time Altitude Azimuth Distance (km) Brightness Sun altitude
Rises 04:46:14 0° 8° (N) 3,356 7.5 -12.5°
Reaches altitude 10° 04:48:39 10° 3° (N) 2,419 6.7 -12.0°
Maximum altitude 04:53:45 47° 291° (WNW) 1,081 4.4 -11.2°
Drops below altitude 10° 04:58:48 10° 220° (SW) 2,402 6.2 -10.3°
Sets 05:01:12 0° 214° (SW) 3,330 6.9 -9.9°
